Wind_Speed
28 30 33 35 38 41 44 47 49 50 51 52 53 54 55 56 55 55 55 54 54 52 53 49 46 43 46
35 38 41 43 45 48 51 54 55 57 58 59 60 60 60 60 60 60 61 60 60 58 55 53 49 40 34
44 46 49 51 54 57 58 59 61 63 65 66 67 67 66 65 65 64 65 62 64 60 57 52 51 45 44
49 52 57 59 60 62 64 66 67 68 69 70 70 71 71 68 69 70 71 69 70 64 57 53 53 51 52
57 61 64 67 69 70 71 72 73 74 75 75 76 77 77 76 74 73 60 58 60 56 51 52 54 56 44
65 66 67 69 70 72 74 76 77 77 78 78 80 82 83 79 74 73 66 78 67 63 65 52 51 54 40
66 68 69 71 74 75 78 80 80 81 84 83 86 89 89 82 72 56 56 58 51 41 58 55 54 47 41
68 69 72 75 78 79 80 81 82 84 89 91 94 96 83 69 62 56 54 40 47 54 62 56 50 55 48
68 71 75 77 79 80 80 82 85 87 94 97 89 74 61 43 45 51 63 65 58 43 40 47 38 38 33
71 73 76 78 77 79 81 83 87 93 89 70 55 44 34 43 54 50 58 50 48 46 33 31 34 35 35
72 74 76 76 76 79 82 87 92 90 58 40 33 33 32 28 41 43 46 41 33 36 35 37 36 35 38
73 73 73 73 75 78 82 86 76 50 30 22 20 25 38 31 28 33 36 42 44 44 45 48 41 41 35
71 71 71 72 74 77 79 69 42 20 17 18 23 19 22 33 37 29 18 28 35 33 38 43 42 38 32
69 69 71 71 73 71 57 38 24 20 22 23 23 21 21 20 28 37 28 28 33 34 43 39 38 33 33
67 68 69 70 67 51 33 25 20 23 21 21 22 23 18 24 26 31 27 26 33 23 30 33 34 31 32
67 67 66 64 51 34 26 22 24 22 19 24 24 18 15 23 29 27 28 33 38 30 26 30 30 28 28
66 65 63 53 34 27 26 24 22 25 15 17 26 21 16 14 19 17 33 36 36 33 32 30 24 24 25
Wind_Direction
283 285 287 290 291 293 294 294 294 294 292 291 291 292 291 290 289 289 289 290 290 287 286 285 284 286 282
290 292 294 294 294 294 293 293 292 291 289 289 288 287 286 286 284 284 284 285 285 283 281 282 283 281 282
296 295 295 294 293 294 294 294 293 291 290 289 289 288 288 287 284 281 283 279 276 274 273 272 275 269 273
295 296 296 296 296 295 295 295 294 292 290 288 287 286 286 284 278 276 275 272 271 270 268 265 262 266 267
299 300 300 298 296 295 293 292 293 291 289 287 286 286 285 284 278 272 266 264 264 265 261 253 258 261 250
300 298 296 295 294 296 296 295 294 292 290 289 288 288 285 280 275 268 263 257 258 259 267 249 259 247 236
299 298 298 299 298 297 296 295 294 293 292 291 290 288 285 279 269 257 261 253 245 246 246 250 252 249 215
300 301 301 299 297 296 295 295 295 294 294 293 291 288 281 272 260 247 242 251 255 266 258 265 257 253 224
300 301 301 299 298 297 298 298 298 297 296 296 294 284 272 249 234 235 238 249 254 247 247 241 243 225 213
301 301 301 299 298 299 300 300 300 302 301 290 280 274 265 240 231 239 248 241 246 238 236 242 243 224 216
303 302 299 299 301 301 302 305 306 305 296 275 269 261 241 240 229 225 225 236 239 245 243 250 248 244 227
303 301 300 300 302 304 306 308 306 298 277 255 242 256 242 231 227 223 233 236 237 228 234 236 236 228 226
301 300 301 301 303 306 308 307 294 273 255 251 249 249 264 244 245 225 232 205 215 225 220 211 218 227 228
301 300 300 302 305 309 305 291 268 249 251 235 250 241 241 244 240 239 222 211 207 219 212 212 225 228 226
299 299 302 306 308 306 287 274 246 243 252 257 250 236 244 234 223 228 232 225 195 213 214 222 229 229 229
300 303 306 308 306 290 271 258 243 252 253 257 235 241 237 233 238 236 221 206 203 225 220 226 225 225 232
305 308 309 306 291 270 264 262 258 235 256 260 230 238 237 224 237 230 211 206 214 224 220 220 221 229 233
Height
5692 5690 5688 5685 5683 5681 5679 5677 5674 5670 5667 5665 5664 5662 5660 5658 5656 5654 5653 5652 5651 5650 5650 5648 5647 5647 5648
5681 5679 5676 5673 5670 5668 5665 5662 5659 5656 5652 5649 5646 5644 5643 5641 5639 5638 5636 5636 5634 5633 5633 5634 5634 5633 5634
5669 5666 5664 5660 5657 5654 5651 5647 5643 5638 5634 5630 5627 5625 5624 5621 5619 5617 5616 5615 5615 5616 5616 5617 5619 5620 5619
5656 5652 5648 5644 5639 5636 5633 5628 5623 5618 5614 5610 5606 5604 5602 5600 5597 5596 5594 5593 5593 5596 5597 5600 5601 5602 5606
5641 5636 5630 5625 5621 5616 5611 5607 5603 5597 5593 5588 5582 5580 5578 5576 5573 5574 5576 5570 5573 5577 5581 5580 5584 5585 5587
5624 5619 5613 5607 5601 5595 5589 5584 5580 5575 5567 5567 5558 5554 5550 5548 5549 5549 5551 5551 5553 5557 5564 5566 5568 5567 5571
5606 5600 5594 5586 5580 5573 5565 5560 5556 5548 5541 5541 5533 5525 5518 5518 5521 5525 5529 5530 5531 5537 5544 5548 5554 5554 5558
5586 5579 5572 5565 5558 5551 5544 5537 5532 5525 5511 5507 5503 5496 5485 5485 5491 5499 5511 5509 5516 5523 5529 5532 5538 5542 5548
5569 5561 5552 5543 5534 5527 5519 5511 5506 5500 5485 5468 5465 5456 5456 5466 5473 5476 5487 5495 5504 5511 5515 5520 5525 5528 5534
5550 5540 5530 5521 5512 5503 5495 5488 5476 5467 5454 5437 5434 5434 5437 5444 5455 5464 5470 5476 5488 5498 5502 5506 5513 5520 5526
5531 5521 5512 5501 5490 5481 5471 5458 5446 5433 5423 5419 5421 5423 5426 5432 5442 5452 5457 5465 5471 5483 5493 5499 5504 5511 5516
5509 5500 5492 5482 5472 5460 5447 5433 5418 5412 5410 5411 5414 5416 5419 5425 5432 5442 5449 5455 5463 5473 5481 5489 5497 5503 5508
5488 5480 5472 5463 5453 5441 5426 5414 5407 5405 5405 5406 5409 5412 5416 5420 5426 5434 5440 5447 5455 5463 5471 5479 5486 5493 5500
5469 5462 5454 5444 5433 5420 5408 5402 5400 5399 5400 5401 5404 5408 5411 5416 5421 5429 5438 5445 5450 5458 5466 5471 5479 5486 5493
5454 5445 5434 5423 5411 5401 5396 5394 5394 5394 5396 5398 5400 5404 5408 5413 5419 5426 5431 5438 5446 5453 5459 5466 5474 5481 5487
5435 5425 5413 5403 5394 5390 5389 5389 5390 5391 5392 5394 5396 5400 5403 5409 5414 5419 5424 5431 5440 5446 5453 5461 5469 5475 5481
5415 5405 5396 5388 5384 5383 5384 5384 5385 5387 5388 5390 5392 5396 5400 5404 5408 5412 5416 5425 5433 5441 5450 5458 5463 5470 5476